Flag for France Weather past 2 weeks in Boulogne-Billancourt, France

Now
48 °F

Clear.


Feels Like: 46 °F
Forecast: 51 / 71 °F
Wind: 6 mph from Northeast

Location: Paris-Orly

Current Time: Apr 21, 2015 at 6:09:36 AM

Latest Report: Apr 21, 2015 at 5:30 AM


Visibility: 10 mi

Pressure: 30.33 "Hg

Humidity: 66%

Dew point: 37 °F

Location of Boulogne-BillancourtLocation

Historic Weather in Boulogne-Billancourt — Graph

°F

Boulogne-Billancourt temperature yesterday

Maximum temperature yesterday: 70 °F (at 3:00 PM)
Minimum temperature yesterday: 43 °F (at 7:00 AM)
Average temperature yesterday: 57 °F

Past Weeks' High & Low Weather Summary

 TemperatureHumidityPressure
High81 °F (Apr 15, 6:00 PM)100% (Apr 12, 2:00 AM)30.63 "Hg (Apr 12, 2:00 AM)
Low34 °F (Apr 6, 5:30 AM)21% (Apr 9, 5:30 PM)29.83 "Hg (Apr 16, 6:30 PM)
Average56 °F58%30.23 "Hg
* Reported Apr 6 4:00 AM — Apr 21 4:30 AM, Boulogne-Billancourt, Weather by CustomWeather, © 2015

Note: Actual official high and low records may vary slightly from our data, if they occured in-between our weather recording intervals... More about our weather records

Advertising

Boulogne-Billancourt weather history for previous 24 hours

 ConditionsComfort  
Time TempWeatherWind HumidityBarometerVisibility
4:30 AM
Tue, Apr 21
50 °FClear.8 mph62%30.33 "Hg10 mi
4:00 AM50 °FClear.9 mph62%30.33 "Hg10 mi
3:30 AM50 °FClear.8 mph62%30.33 "Hg10 mi
3:00 AM52 °FClear.8 mph54%30.33 "Hg10 mi
2:30 AM52 °FClear.9 mph58%30.33 "Hg10 mi
2:00 AM52 °FClear.8 mph54%30.33 "Hg10 mi
1:30 AM54 °FClear.8 mph51%30.33 "Hg10 mi
1:00 AM54 °FClear.7 mph51%30.33 "Hg10 mi
12:30 AM54 °FClear.8 mph51%30.33 "Hg10 mi
12:00 AM55 °FClear.8 mph47%30.33 "Hg10 mi
11:30 PM
Mon, Apr 20
57 °FClear.8 mph44%30.33 "Hg10 mi
11:00 PM59 °FClear.10 mph42%30.33 "Hg10 mi
10:30 PM59 °FClear.10 mph42%30.30 "Hg10 mi
10:00 PM57 °FClear.9 mph44%30.30 "Hg10 mi
9:30 PM59 °FSunny.6 mph39%30.30 "Hg10 mi
9:00 PM63 °FSunny.9 mph34%30.30 "Hg10 mi
8:30 PM64 °FSunny.12 mph28%30.27 "Hg10 mi
8:00 PM66 °FSunny.14 mph28%30.27 "Hg10 mi
7:30 PM66 °FSunny.13 mph28%30.27 "Hg10 mi
7:00 PM68 °FSunny.13 mph28%30.27 "Hg10 mi
6:30 PM68 °FPassing clouds.13 mph28%30.27 "HgN/A
6:00 PM70 °FPassing clouds.13 mph29%30.27 "HgN/A
5:30 PM70 °FSunny.9 mph27%30.24 "Hg10 mi
5:00 PM70 °FPassing clouds.12 mph25%30.24 "HgN/A
4:30 PM70 °FPassing clouds.8 mph27%30.24 "HgN/A
4:00 PM70 °FPassing clouds.10 mph27%30.27 "HgN/A
3:30 PM70 °FPassing clouds.9 mph29%30.27 "HgN/A
3:00 PM70 °FPassing clouds.12 mph27%30.27 "HgN/A
2:30 PM68 °FPassing clouds.9 mph26%30.27 "HgN/A
2:00 PM68 °FPassing clouds.12 mph28%30.27 "HgN/A
1:30 PM66 °FPassing clouds.13 mph32%30.27 "HgN/A
1:00 PM66 °FPassing clouds.10 mph37%30.27 "HgN/A
12:30 PM64 °FPassing clouds.7 mph40%30.27 "HgN/A
12:00 PM61 °FPassing clouds.7 mph45%30.27 "HgN/A
11:30 AM59 °FPassing clouds.8 mph48%30.27 "HgN/A
11:00 AM57 °FPassing clouds.9 mph48%30.24 "HgN/A
10:30 AM55 °FPassing clouds.8 mph51%30.24 "HgN/A
10:00 AM55 °FSunny.8 mph47%30.24 "Hg10 mi
9:30 AM52 °FSunny.6 mph58%30.24 "Hg10 mi
9:00 AM52 °FPassing clouds.7 mph58%30.24 "HgN/A
8:30 AM48 °FSunny.9 mph62%30.21 "Hg10 mi
8:00 AM46 °FSunny.7 mph71%30.21 "Hg10 mi
7:30 AM45 °FPassing clouds.7 mph71%30.21 "HgN/A
7:00 AM43 °FClear.5 mph76%30.18 "Hg10 mi
6:30 AM45 °FClear.7 mph71%30.18 "Hg10 mi
6:00 AM45 °FClear.8 mph71%30.18 "Hg10 mi
Weather by CustomWeather, © 2015

See weather overviewHow to use our weather pages